GW1238 Weather Reports


Display with metric or nautical units.
time (UTC)temp
F
wind
direction
speed
MPH
gust
MPH
rain 1hr
in
rain 24hr
in
rain mn
in
humidity
%
barometer
mb
20260902235243 87 338 2.0 2.0 0.00 0.00 0.00 72 1019.3
20260902234742 87 341 2.0 2.0 0.00 0.00 0.00 72 1019.3
20260902234242 87 344 1.0 2.0 0.00 0.00 0.00 71 1019.3
20260902233742 88 344 1.0 2.0 0.00 0.00 0.00 71 1019.4
20260902233242 88 341 1.0 2.0 0.00 0.00 0.00 70 1019.4
20260902232740 89 339 1.0 2.0 0.00 0.00 0.00 69 1019.5
20260902232234 89 330 2.0 2.0 0.00 0.00 0.00 65 1019.3
20260902231728 90 337 1.0 2.0 0.00 0.00 0.00 62 1019.3
20260902231223 90 341 1.0 2.0 0.00 0.00 0.00 62 1019.2
20260902230718 91 336 2.0 2.0 0.00 0.00 0.00 61 1019.2
20260902230217 92 349 1.0 1.0 0.00 0.00 0.00 57 1019.4
20260902225713 94 348 1.0 1.0 0.00 0.00 0.00 55 1019.3
20260902225212 97 347 0.0 1.0 0.00 0.00 0.00 50 1019.3
20260902224711 98 152 0.0 1.0 0.00 0.00 0.00 51 1019.3
20260902224207 98 265 0.0 1.0 0.00 0.00 0.00 50 1019.4
20260902223703 98 342 0.0 1.0 0.00 0.00 0.00 50 1019.3
20260902223202 99 178 0.0 0.0 0.00 0.00 0.00 50 1019.6
20260902222701 98 331 0.0 1.0 0.00 0.00 0.00 52 1019.3
20260902222200 99 137 0.0 1.0 0.00 0.00 0.00 52 1019.5
20260902221655 99 212 0.0 0.0 0.00 0.00 0.00 50 1019.4
20260902221149 95 109 1.0 2.0 0.00 0.00 0.00 57 1019.6
20260902220645 96 136 1.0 1.0 0.00 0.00 0.00 54 1019.5
20260902220145 96 144 0.0 0.0 0.00 0.00 0.00 56 1019.6
20260902215641 95 113 1.0 1.0 0.00 0.00 0.00 61 1019.6
20260902215136 96 127 0.0 1.0 0.00 0.00 0.00 60 1019.6
20260902214631 96 112 1.0 1.0 0.00 0.00 0.00 56 1019.6
20260902214130 97 86 1.0 2.0 0.00 0.00 0.00 48 1019.5
20260902213625 99 123 1.0 1.0 0.00 0.00 0.00 54 1019.6
20260902213124 98 144 0.0 0.0 0.00 0.00 0.00 54 1019.6
20260902212620 97 154 0.0 1.0 0.00 0.00 0.00 48 1019.7
20260902212116 97 139 1.0 1.0 0.00 0.00 0.00 52 1019.7
20260902211612 96 113 1.0 2.0 0.00 0.00 0.00 51 1019.7
20260902211108 96 115 1.0 1.0 0.00 0.00 0.00 56 1019.5
20260902210607 96 119 1.0 2.0 0.00 0.00 0.00 55 1019.5
20260902210108 97 127 1.0 1.0 0.00 0.00 0.00 49 1019.8
20260902205606 100 150 0.0 0.0 0.00 0.00 0.00 48 1019.7
20260902205102 100 150 0.0 0.0 0.00 0.00 0.00 51 1019.8
20260902204557 99 135 0.0 0.0 0.00 0.00 0.00 49 1019.7
20260902204057 97 134 0.0 1.0 0.00 0.00 0.00 50 1019.9
20260902203553 96 120 1.0 1.0 0.00 0.00 0.00 54 1019.9
20260902203051 95 125 1.0 2.0 0.00 0.00 0.00 58 1019.9
20260902202548 97 142 0.0 1.0 0.00 0.00 0.00 50 1019.9
20260902202044 96 101 1.0 2.0 0.00 0.00 0.00 49 1020.0
20260902201539 96 110 1.0 1.0 0.00 0.00 0.00 52 1020.0
20260902201038 98 135 0.0 0.0 0.00 0.00 0.00 47 1020.2
20260902200534 96 122 1.0 1.0 0.00 0.00 0.00 48 1020.0
20260902200030 98 156 0.0 1.0 0.00 0.00 0.00 47 1020.2
20260902195526 95 156 1.0 2.0 0.00 0.00 0.00 53 1020.2
20260902195024 96 160 1.0 2.0 0.00 0.00 0.00 48 1020.4
20260902194524 96 136 0.0 1.0 0.00 0.00 0.00 54 1020.3
20260902194019 96 132 1.0 2.0 0.00 0.00 0.00 52 1020.3
20260902193515 95 121 1.0 2.0 0.00 0.00 0.00 57 1020.5
20260902193015 94 106 2.0 3.0 0.00 0.00 0.00 51 1020.7
20260902192513 95 142 0.0 1.0 0.00 0.00 0.00 54 1020.6
20260902192012 95 131 0.0 1.0 0.00 0.00 0.00 55 1020.9
20260902191508 94 144 1.0 1.0 0.00 0.00 0.00 55 1020.7
20260902191002 94 146 1.0 1.0 0.00 0.00 0.00 55 1020.8
20260902190458 93 125 1.0 1.0 0.00 0.00 0.00 55 1021.0
20260902185953 93 117 1.0 1.0 0.00 0.00 0.00 61 1021.0
20260902185449 93 116 2.0 3.0 0.00 0.00 0.00 55 1021.0
20260902184944 92 136 1.0 2.0 0.00 0.00 0.00 61 1021.1
20260902184439 92 137 2.0 2.0 0.00 0.00 0.00 60 1021.2
20260902183935 92 128 1.0 3.0 0.00 0.00 0.00 65 1021.5
20260902183431 92 133 1.0 2.0 0.00 0.00 0.00 65 1021.2
20260902182927 91 122 2.0 2.0 0.00 0.00 0.00 63 1021.2
20260902182423 91 125 1.0 2.0 0.00 0.00 0.00 62 1021.5
20260902181920 91 145 1.0 2.0 0.00 0.00 0.00 65 1021.3
20260902181415 91 137 2.0 3.0 0.00 0.00 0.00 64 1021.3
20260902180914 91 137 2.0 2.0 0.00 0.00 0.00 64 1021.5
20260902180410 91 122 2.0 3.0 0.00 0.00 0.00 63 1021.5
20260902175905 91 135 2.0 2.0 0.00 0.00 0.00 65 1021.7
20260902175400 90 131 1.0 2.0 0.00 0.00 0.00 66 1021.7
20260902174856 90 134 1.0 2.0 0.00 0.00 0.00 65 1021.8
20260902174353 90 132 2.0 2.0 0.00 0.00 0.00 66 1021.8
20260902173848 89 110 2.0 2.0 0.00 0.00 0.00 67 1022.0
20260902173348 90 128 2.0 2.0 0.00 0.00 0.00 70 1022.1
20260902172843 90 120 2.0 2.0 0.00 0.00 0.00 65 1022.0
20260902172342 89 126 2.0 3.0 0.00 0.00 0.00 66 1022.2
20260902171837 89 131 2.0 2.0 0.00 0.00 0.00 71 1022.5
20260902171332 89 123 2.0 3.0 0.00 0.00 0.00 71 1022.5
20260902170829 89 126 1.0 2.0 0.00 0.00 0.00 67 1022.6
20260902170325 89 125 1.0 2.0 0.00 0.00 0.00 70 1022.5
20260902165820 88 119 1.0 2.0 0.00 0.00 0.00 71 1022.5
20260902165319 88 112 2.0 2.0 0.00 0.00 0.00 74 1022.6
20260902164814 88 121 2.0 3.0 0.00 0.00 0.00 69 1022.9
20260902164309 88 107 3.0 3.0 0.00 0.00 0.00 71 1022.9
20260902163803 87 116 1.0 3.0 0.00 0.00 0.00 74 1023.1
20260902163302 87 104 2.0 3.0 0.00 0.00 0.00 72 1023.0
20260902162756 86 119 3.0 3.0 0.00 0.00 0.00 74 1023.1
20260902162251 86 114 3.0 3.0 0.00 0.00 0.00 78 1023.1
20260902161745 86 113 2.0 4.0 0.00 0.00 0.00 76 1023.2
20260902161241 86 113 2.0 3.0 0.00 0.00 0.00 78 1023.3
20260902160737 86 113 2.0 4.0 0.00 0.00 0.00 77 1023.3
20260902160232 86 108 2.0 3.0 0.00 0.00 0.00 81 1023.3
20260902155730 85 107 3.0 4.0 0.00 0.00 0.00 78 1023.4
20260902155229 85 110 3.0 4.0 0.00 0.00 0.00 80 1023.3
20260902154724 85 105 3.0 3.0 0.00 0.00 0.00 78 1023.3
20260902154224 85 102 3.0 3.0 0.00 0.00 0.00 80 1023.4
20260902153723 85 112 3.0 3.0 0.00 0.00 0.00 80 1023.4
20260902153218 85 106 3.0 3.0 0.00 0.00 0.00 80 1023.7
20260902152714 85 105 3.0 3.0 0.00 0.00 0.00 79 1023.4
20260902152209 85 113 3.0 4.0 0.00 0.00 0.00 78 1023.5
20260902151705 84 115 3.0 3.0 0.00 0.00 0.00 79 1023.5
20260902151200 85 120 3.0 4.0 0.00 0.00 0.00 82 1023.5
20260902150655 84 106 2.0 3.0 0.00 0.00 0.00 81 1023.4
20260902150151 84 113 2.0 3.0 0.00 0.00 0.00 79 1023.6
20260902145650 84 119 3.0 3.0 0.00 0.00 0.00 82 1023.6
20260902145150 84 109 2.0 3.0 0.00 0.00 0.00 79 1023.5
20260902144646 83 117 2.0 3.0 0.00 0.00 0.00 80 1023.5
20260902144141 83 122 2.0 4.0 0.00 0.00 0.00 81 1023.6
20260902143636 83 120 2.0 3.0 0.00 0.00 0.00 83 1023.3
20260902143131 83 110 2.0 3.0 0.00 0.00 0.00 84 1023.4
20260902142627 83 127 2.0 3.0 0.00 0.00 0.00 82 1023.5
20260902142123 82 113 2.0 3.0 0.00 0.00 0.00 84 1023.3
20260902141622 82 117 2.0 3.0 0.00 0.00 0.00 85 1023.1
20260902141118 82 124 2.0 3.0 0.00 0.00 0.00 85 1023.2
20260902140613 82 108 2.0 3.0 0.00 0.00 0.00 86 1023.3
20260902140108 82 118 2.0 3.0 0.00 0.00 0.00 85 1023.3
20260902135607 82 113 2.0 2.0 0.00 0.00 0.00 86 1023.3
20260902135103 82 105 2.0 3.0 0.00 0.00 0.00 85 1023.6
20260902134558 81 114 2.0 4.0 0.00 0.00 0.00 85 1023.4
20260902134058 82 131 1.0 2.0 0.00 0.00 0.00 86 1023.3
20260902133553 81 111 2.0 2.0 0.00 0.00 0.00 85 1023.4
20260902133052 82 119 1.0 2.0 0.00 0.00 0.00 85 1023.5
20260902132548 82 116 1.0 2.0 0.00 0.00 0.00 84 1023.4
20260902132044 82 130 1.0 2.0 0.00 0.00 0.00 85 1023.4
20260902131539 82 150 0.0 2.0 0.00 0.00 0.00 83 1023.7
20260902131034 83 147 0.0 1.0 0.00 0.00 0.00 81 1023.5
20260902130530 82 135 1.0 2.0 0.00 0.00 0.00 82 1023.6
20260902130025 82 131 1.0 1.0 0.00 0.00 0.00 82 1023.3
20260902125521 83 132 1.0 1.0 0.00 0.00 0.00 80 1023.1
20260902125016 82 152 0.0 1.0 0.00 0.00 0.00 85 1023.1
20260902124513 80 129 0.0 1.0 0.00 0.00 0.00 91 1023.1
20260902124012 79 119 0.0 0.0 0.00 0.00 0.00 93 1023.4
20260902123508 77 113 0.0 0.0 0.00 0.00 0.00 94 1023.2
20260902123008 76 103 0.0 1.0 0.00 0.00 0.00 95 1023.2
20260902122502 76 7 1.0 1.0 0.00 0.00 0.00 95 1023.3
20260902121958 76 344 1.0 2.0 0.00 0.00 0.00 95 1023.3
20260902121453 75 339 1.0 1.0 0.00 0.00 0.00 96 1023.0
20260902120948 75 345 1.0 2.0 0.00 0.00 0.00 96 1023.1
20260902120444 74 344 1.0 2.0 0.00 0.00 0.00 97 1022.9
20260902115943 74 332 1.0 2.0 0.00 0.00 0.00 97 1023.1
20260902115440 74 346 1.0 2.0 0.00 0.00 0.00 97 1022.6
20260902114936 74 0 1.0 2.0 0.00 0.00 0.00 98 1022.6
20260902114427 73 339 2.0 2.0 0.00 0.00 0.00 98 1022.6
20260902113926 74 356 1.0 2.0 0.00 0.00 0.00 98 1022.4
20260902113422 73 346 1.0 2.0 0.00 0.00 0.00 98 1022.2
20260902112921 74 351 2.0 2.0 0.00 0.00 0.00 98 1022.3
20260902112412 73 350 2.0 2.0 0.00 0.00 0.00 98 1022.4
20260902111908 73 334 2.0 2.0 0.00 0.00 0.00 98 1022.4
20260902111404 73 342 1.0 2.0 0.00 0.00 0.00 99 1022.2
20260902110900 73 346 1.0 2.0 0.00 0.00 0.00 99 1022.3
20260902110355 73 333 1.0 2.0 0.00 0.00 0.00 99 1022.1
20260902105855 73 329 1.0 2.0 0.00 0.00 0.00 99 1022.3
20260902105350 74 345 1.0 3.0 0.00 0.00 0.00 99 1022.1
20260902104845 74 330 2.0 2.0 0.00 0.00 0.00 99 1021.9
20260902104341 74 337 1.0 2.0 0.00 0.00 0.00 99 1022.2
20260902103841 74 338 1.0 2.0 0.00 0.00 0.00 99 1022.1
20260902103336 74 347 1.0 2.0 0.00 0.00 0.00 99 1022.0
20260902102831 74 20 1.0 1.0 0.00 0.00 0.00 99 1022.2
20260902102329 74 325 2.0 2.0 0.00 0.00 0.00 99 1022.0
20260902101824 74 329 2.0 2.0 0.00 0.00 0.00 99 1022.0
20260902101319 74 329 2.0 2.0 0.00 0.00 0.00 99 1021.7
20260902100819 74 331 2.0 2.0 0.00 0.00 0.00 99 1021.9
20260902100318 74 345 1.0 2.0 0.00 0.00 0.00 99 1021.8
20260902095814 74 343 2.0 2.0 0.00 0.00 0.00 99 1021.7
20260902095313 74 340 2.0 2.0 0.00 0.00 0.00 98 1021.8
20260902094808 74 334 2.0 2.0 0.00 0.00 0.00 98 1021.7
20260902094304 74 342 2.0 2.0 0.00 0.00 0.00 98 1021.7
20260902093804 75 343 2.0 2.0 0.00 0.00 0.00 99 1021.6
20260902093259 74 339 2.0 2.0 0.00 0.00 0.00 98 1021.7
20260902092757 74 324 2.0 2.0 0.00 0.00 0.00 98 1021.7
20260902092253 74 345 1.0 2.0 0.00 0.00 0.00 98 1021.7
20260902091752 74 337 2.0 2.0 0.00 0.00 0.00 98 1021.6
20260902091249 74 339 1.0 2.0 0.00 0.00 0.00 98 1021.7
20260902090745 74 330 2.0 3.0 0.00 0.00 0.00 98 1021.5
20260902090244 74 350 2.0 2.0 0.00 0.00 0.00 98 1021.4
20260902085739 74 343 1.0 2.0 0.00 0.00 0.00 98 1021.3
20260902085234 74 341 2.0 2.0 0.00 0.00 0.00 98 1021.4
20260902084730 74 337 1.0 2.0 0.00 0.00 0.00 98 1021.5
20260902084226 75 343 1.0 1.0 0.00 0.00 0.00 98 1021.2
20260902083720 75 330 1.0 2.0 0.00 0.00 0.00 98 1021.3
20260902083215 75 336 2.0 2.0 0.00 0.00 0.00 98 1021.1
20260902082710 75 343 2.0 2.0 0.00 0.00 0.00 98 1021.0
20260902082207 75 336 2.0 2.0 0.00 0.00 0.00 98 1021.1
20260902081703 75 339 1.0 2.0 0.00 0.00 0.00 98 1021.3
20260902081202 75 336 2.0 2.0 0.00 0.00 0.00 98 1021.1
20260902080657 75 338 2.0 2.0 0.00 0.00 0.00 98 1021.0
20260902080154 75 333 2.0 2.0 0.00 0.00 0.00 98 1021.1
20260902075649 75 337 1.0 2.0 0.00 0.00 0.00 98 1020.8
20260902075145 75 348 1.0 3.0 0.00 0.00 0.00 98 1020.8
20260902074645 75 341 1.0 2.0 0.00 0.00 0.00 98 1020.8
20260902074140 75 335 2.0 2.0 0.00 0.00 0.00 97 1021.0
20260902073635 75 327 1.0 2.0 0.00 0.00 0.00 97 1020.9
20260902073132 75 329 1.0 2.0 0.00 0.00 0.00 97 1021.0
20260902072627 75 351 1.0 2.0 0.00 0.00 0.00 97 1020.9
20260902072124 75 334 2.0 2.0 0.00 0.00 0.00 97 1021.0
20260902071620 75 330 2.0 2.0 0.00 0.00 0.00 97 1021.2
20260902071115 75 333 1.0 2.0 0.00 0.00 0.00 97 1021.3
20260902070611 76 332 1.0 2.0 0.00 0.00 0.00 97 1021.3
20260902070105 75 341 2.0 3.0 0.00 0.00 0.00 97 1021.4
20260902065604 75 330 2.0 2.0 0.00 0.00 0.00 97 1021.3
20260902065100 76 356 1.0 2.0 0.00 0.00 0.00 97 1021.2
20260902064556 75 342 2.0 2.0 0.00 0.00 0.00 96 1021.2
20260902064056 75 333 2.0 2.0 0.00 0.00 0.00 96 1021.1
20260902063556 75 334 2.0 2.0 0.00 0.00 0.00 96 1021.1
20260902063051 75 332 2.0 2.0 0.00 0.00 0.00 96 1021.2
20260902062550 76 341 1.0 2.0 0.00 0.00 0.00 96 1021.2
20260902062046 75 334 2.0 2.0 0.00 0.00 0.00 95 1021.3
20260902061544 75 334 2.0 2.0 0.00 0.00 0.00 95 1021.2
20260902061041 75 333 2.0 2.0 0.00 0.00 0.00 95 1021.4
20260902060538 76 342 2.0 2.0 0.00 0.00 0.00 94 1021.3
20260902060034 76 336 2.0 2.0 0.00 0.00 0.00 94 1021.3
20260902055529 76 329 1.0 2.0 0.00 0.00 0.00 94 1021.2
20260902055025 76 346 2.0 2.0 0.00 0.00 0.00 93 1021.2
20260902054525 76 339 2.0 2.0 0.00 0.00 0.00 92 1021.3
20260902054020 75 339 2.0 2.0 0.00 0.00 0.00 92 1021.3
20260902053515 76 334 2.0 2.0 0.00 0.00 0.00 92 1021.2
20260902053010 76 331 2.0 2.0 0.00 0.00 0.00 92 1021.3
20260902052510 76 341 2.0 3.0 0.00 0.00 0.00 92 1021.3
20260902052005 76 335 2.0 2.0 0.00 0.00 0.00 92 1021.3
20260902051500 76 343 2.0 2.0 0.00 0.00 0.00 91 1021.3
20260902050958 76 341 2.0 2.0 0.00 0.00 0.00 91 1021.4
20260902050453 76 337 2.0 2.0 0.00 0.00 0.00 91 1021.3
20260902045948 76 341 2.0 2.0 0.00 0.00 0.00 91 1021.3
20260902045443 76 338 1.0 2.0 0.00 0.00 0.00 91 1021.1
20260902044939 76 340 2.0 2.0 0.00 0.00 0.00 90 1021.2
20260902044429 76 341 2.0 2.0 0.00 0.00 0.00 90 1021.2
20260902043925 77 341 2.0 2.0 0.00 0.00 0.00 90 1021.3
20260902043420 77 338 2.0 2.0 0.00 0.00 0.00 90 1021.4
20260902042915 77 337 2.0 2.0 0.00 0.00 0.00 91 1021.1
20260902042414 77 349 2.0 2.0 0.00 0.00 0.00 90 1021.0
20260902041909 77 334 2.0 3.0 0.00 0.00 0.00 89 1021.2
20260902041409 77 338 2.0 2.0 0.00 0.00 0.00 90 1021.3
20260902040908 77 332 2.0 3.0 0.00 0.00 0.00 89 1021.3
20260902040404 77 340 2.0 2.0 0.00 0.00 0.00 89 1021.2
20260902035903 78 338 2.0 2.0 0.00 0.00 0.00 90 1021.2
20260902035358 77 338 2.0 2.0 0.00 0.00 0.00 89 1021.3
20260902034856 78 341 2.0 2.0 0.00 0.00 0.00 89 1021.4
20260902034353 78 336 2.0 2.0 0.00 0.00 0.00 89 1021.2
20260902033851 78 341 2.0 2.0 0.00 0.00 0.00 88 1021.3
20260902033346 78 333 2.0 2.0 0.00 0.00 0.00 88 1021.2
20260902032844 78 342 1.0 2.0 0.00 0.00 0.00 88 1021.5
20260902032344 78 334 1.0 2.0 0.00 0.00 0.00 88 1021.3
20260902031839 78 334 2.0 2.0 0.00 0.00 0.00 88 1021.2
20260902031335 78 328 2.0 2.0 0.00 0.00 0.00 88 1021.3
20260902030830 79 1 1.0 2.0 0.00 0.00 0.00 88 1021.3
20260902030325 78 335 2.0 2.0 0.00 0.00 0.00 87 1021.5
20260902025824 79 348 1.0 2.0 0.00 0.00 0.00 88 1021.3
20260902025320 78 333 2.0 2.0 0.00 0.00 0.00 87 1021.5
20260902024815 79 338 2.0 3.0 0.00 0.00 0.00 86 1021.5
20260902024310 79 340 2.0 2.0 0.00 0.00 0.00 87 1021.5
20260902023805 79 341 2.0 2.0 0.00 0.00 0.00 86 1021.4
20260902023300 79 338 2.0 2.0 0.00 0.00 0.00 86 1021.6
20260902022759 79 340 2.0 2.0 0.00 0.00 0.00 86 1021.5
20260902022255 80 333 2.0 2.0 0.00 0.00 0.00 85 1021.4
20260902021751 80 341 2.0 2.0 0.00 0.00 0.00 85 1021.2
20260902021250 80 340 2.0 2.0 0.00 0.00 0.00 84 1021.5
20260902020747 80 341 1.0 2.0 0.00 0.00 0.00 84 1021.3
20260902020243 80 339 2.0 2.0 0.00 0.00 0.00 85 1021.2
20260902015737 80 333 2.0 2.0 0.00 0.00 0.00 85 1020.9
20260902015234 80 339 2.0 3.0 0.00 0.00 0.00 85 1021.1
20260902014730 80 334 1.0 2.0 0.00 0.00 0.00 84 1021.1
20260902014226 80 333 2.0 2.0 0.00 0.00 0.00 84 1021.0
20260902013724 81 340 2.0 2.0 0.00 0.00 0.00 84 1020.8
20260902013221 81 332 2.0 2.0 0.00 0.00 0.00 83 1020.8
20260902012716 81 336 2.0 2.0 0.00 0.00 0.00 82 1021.0
20260902012212 81 335 2.0 2.0 0.00 0.00 0.00 84 1020.9
20260902011707 81 335 1.0 3.0 0.00 0.00 0.00 82 1020.8
20260902011206 82 340 1.0 1.0 0.00 0.00 0.00 82 1020.9
20260902010705 82 331 2.0 2.0 0.00 0.00 0.00 81 1020.9
20260902010201 82 339 2.0 3.0 0.00 0.00 0.00 81 1020.7
20260902005659 82 341 2.0 3.0 0.00 0.00 0.00 80 1020.7
20260902005155 82 332 2.0 2.0 0.00 0.00 0.00 80 1020.5
20260902004655 82 336 2.0 2.0 0.00 0.00 0.00 80 1020.7
20260902004150 83 331 2.0 2.0 0.00 0.00 0.00 80 1020.6
20260902003646 83 351 2.0 3.0 0.00 0.00 0.00 80 1020.5
20260902003142 83 348 2.0 2.0 0.00 0.00 0.00 79 1020.8
20260902002636 83 2 2.0 2.0 0.00 0.00 0.00 80 1020.6
20260902002131 84 359 1.0 2.0 0.00 0.00 0.00 79 1020.5
20260902001626 84 333 2.0 3.0 0.00 0.00 0.00 79 1020.5
20260902001120 84 336 2.0 3.0 0.00 0.00 0.00 78 1020.6
20260902000616 85 349 2.0 2.0 0.00 0.00 0.00 77 1020.6
20260902000111 85 339 2.0 3.0 0.00 0.00 0.00 77 1020.5
20260901235610 85 341 2.0 2.0 0.00 0.00 0.00 76 1020.6